• In Italy
  • List of Countries
  • For 7 days
  • Water Temperature
  • Satellite Maps
  • Weather Map
  • Weather Widgets
  • user-avatar
    Login

    Hourly Weather Madurai

    Today, 23 September, Saturday

    Time Temperature Precipitation Wind Pressure Humidity
    00:00 +31°C° 0 mm 1 mps 744 mmHg 56%
    01:00 +31°C° 0 mm 1 mps 744 mmHg 58%
    02:00 +30°C° 0 mm 1 mps 744 mmHg 59%
    03:00 +30°C° 0 mm 1 mps 744 mmHg 60%
    04:00 +30°C° 0 mm 1 mps 744 mmHg 61%
    05:00 +29°C° 0 mm 1 mps 744 mmHg 63%
    06:00 +30°C° 0 mm 1 mps 745 mmHg 59%
    07:00 +31°C° 0 mm 1 mps 745 mmHg 55%
    08:00 +32°C° 0 mm 2 mps 746 mmHg 51%
    09:00 +34°C° 0 mm 1 mps 745 mmHg 46%
    10:00 +35°C° 0 mm 1 mps 745 mmHg 42%
    11:00 +37°C° 0 mm 1 mps 745 mmHg 37%
    12:00 +37°C° 0 mm 1 mps 744 mmHg 36%
    13:00 +39°C° 0 mm 1 mps 744 mmHg 34%
    14:00 +39°C° 0 mm 1 mps 743 mmHg 33%
    15:00 +38°C° 0 mm 2 mps 743 mmHg 35%
    16:00 +38°C° 0 mm 3 mps 743 mmHg 37%
    17:00 +37°C° 0 mm 3 mps 743 mmHg 40%
    18:00 +36°C° 0 mm 4 mps 744 mmHg 45%
    19:00 +35°C° 0 mm 4 mps 744 mmHg 50%
    20:00 +33°C° 0 mm 4 mps 745 mmHg 56%
    21:00 +33°C° 0.1 mm 4 mps 745 mmHg 57%
    22:00 +33°C° 0.1 mm 3 mps 745 mmHg 59%
    23:00 +31°C° 0.1 mm 2 mps 745 mmHg 61%

    Tomorrow, 24 September, Sunday

    Time Temperature Precipitation Wind Pressure Humidity
    00:00 +31°C° 0.1 mm 2 mps 745 mmHg 62%
    01:00 +31°C° 0.1 mm 1 mps 745 mmHg 62%
    02:00 +31°C° 0.1 mm 1 mps 744 mmHg 63%
    03:00 +30°C° 0.1 mm 1 mps 744 mmHg 64%
    04:00 +30°C° 0.1 mm 1 mps 744 mmHg 66%
    05:00 +30°C° 0.1 mm 1 mps 744 mmHg 67%
    06:00 +31°C° 0.1 mm 1 mps 745 mmHg 63%
    07:00 +31°C° 0.1 mm 1 mps 745 mmHg 60%
    08:00 +32°C° 0.1 mm 1 mps 746 mmHg 56%
    09:00 +33°C° 0 mm 1 mps 746 mmHg 52%
    10:00 +35°C° 0 mm 1 mps 745 mmHg 47%
    11:00 +36°C° 0 mm 1 mps 745 mmHg 43%
    12:00 +36°C° 0 mm 1 mps 744 mmHg 42%
    13:00 +37°C° 0 mm 2 mps 744 mmHg 41%
    14:00 +37°C° 0 mm 2 mps 743 mmHg 41%
    15:00 +37°C° 0 mm 2 mps 743 mmHg 43%
    16:00 +36°C° 0 mm 3 mps 743 mmHg 45%
    17:00 +36°C° 0 mm 3 mps 743 mmHg 47%
    18:00 +35°C° 0.3 mm 3 mps 743 mmHg 51%
    19:00 +34°C° 0.3 mm 3 mps 744 mmHg 54%
    20:00 +33°C° 0.3 mm 3 mps 745 mmHg 57%
    21:00 +33°C° 0.5 mm 3 mps 745 mmHg 59%
    22:00 +33°C° 0.5 mm 3 mps 745 mmHg 60%
    23:00 +31°C° 0.5 mm 3 mps 745 mmHg 61%

    Day after tomorrow, 25 September, Monday

    Time Temperature Precipitation Wind Pressure Humidity
    00:00 +31°C° 0.2 mm 2 mps 744 mmHg 62%
    01:00 +30°C° 0.2 mm 2 mps 744 mmHg 63%
    02:00 +30°C° 0.2 mm 2 mps 743 mmHg 63%
    03:00 +30°C° 0 mm 2 mps 743 mmHg 63%
    04:00 +29°C° 0 mm 2 mps 743 mmHg 63%
    05:00 +29°C° 0 mm 2 mps 744 mmHg 63%
    06:00 +30°C° 0 mm 2 mps 744 mmHg 59%
    07:00 +30°C° 0 mm 2 mps 745 mmHg 56%
    08:00 +31°C° 0 mm 2 mps 745 mmHg 52%
    09:00 +32°C° 0 mm 1 mps 745 mmHg 47%
    10:00 +33°C° 0 mm 1 mps 745 mmHg 42%
    11:00 +35°C° 0 mm 1 mps 745 mmHg 38%
    12:00 +35°C° 0 mm 1 mps 744 mmHg 35%
    13:00 +36°C° 0 mm 1 mps 743 mmHg 33%
    14:00 +37°C° 0 mm 1 mps 742 mmHg 30%
    15:00 +36°C° 0 mm 1 mps 742 mmHg 32%
    16:00 +36°C° 0 mm 1 mps 742 mmHg 33%
    17:00 +37°C° 0 mm 2 mps 742 mmHg 34%
    18:00 +36°C° 0 mm 2 mps 742 mmHg 39%
    19:00 +35°C° 0 mm 3 mps 743 mmHg 45%
    20:00 +34°C° 0 mm 4 mps 744 mmHg 50%
    21:00 +33°C° 0 mm 3 mps 744 mmHg 52%
    22:00 +31°C° 0 mm 3 mps 744 mmHg 55%
    23:00 +31°C° 0 mm 2 mps 744 mmHg 57%

    26 September, Tuesday

    Time Temperature Precipitation Wind Pressure Humidity
    00:00 +30°C° 0 mm 2 mps 744 mmHg 59%
    01:00 +30°C° 0 mm 2 mps 743 mmHg 60%
    02:00 +30°C° 0 mm 2 mps 743 mmHg 61%
    03:00 +29°C° 0 mm 2 mps 743 mmHg 62%
    04:00 +29°C° 0 mm 2 mps 743 mmHg 62%
    05:00 +29°C° 0 mm 1 mps 743 mmHg 63%
    06:00 +30°C° 0 mm 1 mps 743 mmHg 58%
    07:00 +31°C° 0 mm 2 mps 744 mmHg 54%
    08:00 +32°C° 0 mm 2 mps 745 mmHg 50%
    09:00 +33°C° 0 mm 1 mps 744 mmHg 45%
    10:00 +35°C° 0 mm 1 mps 744 mmHg 41%
    11:00 +36°C° 0 mm 1 mps 744 mmHg 36%
    12:00 +37°C° 0 mm 1 mps 743 mmHg 35%
    13:00 +37°C° 0 mm 1 mps 742 mmHg 34%
    14:00 +38°C° 0 mm 2 mps 741 mmHg 32%
    15:00 +38°C° 0 mm 2 mps 742 mmHg 35%
    16:00 +37°C° 0 mm 3 mps 742 mmHg 39%
    17:00 +36°C° 0 mm 3 mps 742 mmHg 42%
    18:00 +36°C° 0 mm 3 mps 743 mmHg 45%
    19:00 +35°C° 0 mm 3 mps 743 mmHg 48%
    20:00 +34°C° 0 mm 3 mps 744 mmHg 52%
    21:00 +34°C° 0.1 mm 3 mps 744 mmHg 54%
    22:00 +33°C° 0.1 mm 3 mps 744 mmHg 55%
    23:00 +31°C° 0.1 mm 3 mps 744 mmHg 57%

    27 September, Wednesday

    Time Temperature Precipitation Wind Pressure Humidity
    00:00 +31°C° 0 mm 3 mps 743 mmHg 58%
    01:00 +30°C° 0 mm 3 mps 743 mmHg 59%
    02:00 +30°C° 0 mm 3 mps 742 mmHg 60%
    03:00 +30°C° 0 mm 2 mps 743 mmHg 61%
    04:00 +29°C° 0 mm 2 mps 743 mmHg 62%
    05:00 +29°C° 0 mm 2 mps 743 mmHg 62%
    06:00 +30°C° 0 mm 2 mps 744 mmHg 60%
    07:00 +31°C° 0 mm 2 mps 744 mmHg 57%
    08:00 +32°C° 0 mm 2 mps 745 mmHg 54%
    09:00 +34°C° 0 mm 2 mps 745 mmHg 49%
    10:00 +35°C° 0 mm 2 mps 745 mmHg 44%
    11:00 +37°C° 0 mm 2 mps 744 mmHg 40%
    12:00 +37°C° 0 mm 2 mps 743 mmHg 38%
    13:00 +37°C° 0 mm 2 mps 743 mmHg 37%
    14:00 +38°C° 0 mm 2 mps 742 mmHg 35%
    15:00 +37°C° 0 mm 3 mps 742 mmHg 38%
    16:00 +37°C° 0 mm 3 mps 742 mmHg 41%
    17:00 +36°C° 0 mm 3 mps 742 mmHg 43%
    18:00 +35°C° 0 mm 3 mps 743 mmHg 46%
    19:00 +34°C° 0 mm 3 mps 743 mmHg 48%
    20:00 +34°C° 0 mm 3 mps 744 mmHg 51%
    21:00 +33°C° 0 mm 3 mps 744 mmHg 52%
    22:00 +31°C° 0 mm 3 mps 744 mmHg 54%
    23:00 +31°C° 0 mm 3 mps 744 mmHg 55%

    28 September, Thursday

    Time Temperature Precipitation Wind Pressure Humidity
    00:00 +30°C° 0.1 mm 3 mps 744 mmHg 56%
    01:00 +30°C° 0.1 mm 3 mps 743 mmHg 56%
    02:00 +30°C° 0.1 mm 3 mps 742 mmHg 57%
    03:00 +29°C° 0 mm 3 mps 743 mmHg 57%
    04:00 +29°C° 0 mm 2 mps 743 mmHg 58%
    05:00 +29°C° 0 mm 2 mps 743 mmHg 58%
    06:00 +30°C° 0 mm 2 mps 744 mmHg 56%
    07:00 +31°C° 0 mm 3 mps 744 mmHg 54%
    08:00 +31°C° 0 mm 3 mps 745 mmHg 51%
    09:00 +34°C° 0 mm 3 mps 745 mmHg 47%
    10:00 +35°C° 0 mm 3 mps 744 mmHg 42%
    11:00 +36°C° 0 mm 3 mps 744 mmHg 37%
    12:00 +37°C° 0 mm 4 mps 743 mmHg 36%
    13:00 +37°C° 0 mm 4 mps 742 mmHg 35%
    14:00 +37°C° 0 mm 5 mps 742 mmHg 35%
    15:00 +36°C° 0 mm 4 mps 742 mmHg 38%
    16:00 +35°C° 0 mm 4 mps 742 mmHg 41%
    17:00 +34°C° 0 mm 4 mps 742 mmHg 45%
    18:00 +34°C° 0 mm 4 mps 743 mmHg 47%
    19:00 +33°C° 0 mm 3 mps 744 mmHg 49%
    20:00 +31°C° 0 mm 3 mps 744 mmHg 51%
    21:00 +31°C° 0 mm 3 mps 744 mmHg 53%
    22:00 +31°C° 0 mm 3 mps 744 mmHg 54%
    23:00 +30°C° 0 mm 3 mps 744 mmHg 55%
    Show more